This demonstration page uses our WeatherBlox Daily Observations layout. Learn more.

Left ArrowRight Arrow

31.84235, -102.49876

Hourly Observations for May 16, 2022

Temp ( °F °C ) Dew Point ( °F °C ) Humidity (%) Winds ( mph kmh ) Pressure ( in mb ) Visibility ( mi km ) Precip ( " mm )
12:53 am 00:53 Clear 83 28.3 38 3.3 20 20 ESE 7 11 29.81 1009 10 16 0.00 0.00
1:53 am 01:53 Clear 82 27.8 50 10 33 33 E 15 24 29.82 1010 10 16 0.00 0.00
2:53 am 02:53 Clear 81 27.2 51 10.6 35 35 E 18 30 29.82 1010 10 16 0.00 0.00
3:53 am 03:53 Clear 77 25 55 12.8 47 47 E 14 22 29.82 1010 10 16 0.00 0.00
4:53 am 04:53 Clear 75 23.9 61 16.1 62 62 E 14 22 29.81 1010 10 16 0.00 0.00
5:53 am 05:53 Clear 72 22.2 62 16.7 71 71 E 9 15 29.82 1010 10 16 0.00 0.00
6:53 am 06:53 Sunny 71 21.7 63 17.2 76 76 E 10 17 29.84 1011 9 14 0.00 0.00
7:53 am 07:53 Sunny 72 22.2 64 17.8 76 76 ENE 16 26 29.86 1011 10 16 0.00 0.00
8:53 am 08:53 Sunny 74 23.3 64 17.8 71 71 E 18 30 29.88 1012 10 16 0.00 0.00
9:53 am 09:53 Sunny 77 25 63 17.2 62 62 E 17 28 29.90 1013 10 16 0.00 0.00
10:53 am 10:53 Sunny 81 27.2 62 16.7 53 53 ESE 15 24 29.89 1012 10 16 0.00 0.00
11:53 am 11:53 Sunny 85 29.4 60 15.6 43 43 E 12 19 29.87 1011 10 16 0.00 0.00
12:53 pm 12:53 Sunny 90 32.2 57 13.9 33 33 ESE 13 20 29.84 1011 10 16 0.00 0.00
1:53 pm 13:53 Sunny 94 34.4 51 10.6 23 23 SE 12 19 29.80 1009 10 16 0.00 0.00
2:53 pm 14:53 Sunny 99 37.2 46 7.8 16 16 SSW 10 17 29.78 1008 10 16 0.00 0.00
3:53 pm 15:53 Sunny 100 37.8 42 5.6 14 14 S 17 28 29.74 1007 10 16 0.00 0.00
4:53 pm 16:53 Sunny 102 38.9 38 3.3 11 11 S 14 22 29.70 1006 10 16 0.00 0.00
5:53 pm 17:53 Sunny 100 37.8 38 3.3 12 12 S 16 26 29.70 1006 10 16 0.00 0.00
6:53 pm 18:53 Mostly Sunny 98 36.7 36 2.2 11 11 S 17 28 29.69 1005 10 16 0.00 0.00
7:53 pm 19:53 Sunny 97 36.1 38 3.3 13 13 S 18 30 29.69 1005 10 16 0.00 0.00
8:53 pm 20:53 Clear 94 34.4 41 5 16 16 S 16 26 29.70 1006 10 16 0.00 0.00
9:53 pm 21:53 Clear 91 32.8 44 6.7 20 20 S 18 30 29.70 1006 10 16 0.00 0.00
10:53 pm 22:53 Clear 88 31.1 46 7.8 23 23 S 16 26 29.72 1007 10 16 0.00 0.00
11:53 pm 23:53 Clear 86 30 47 8.3 26 26 S 20 31 29.74 1007 10 16 0.00 0.00

Powered by AerisWeather